EW1556 Weather Reports


Display with metric or nautical units.
time (UTC)temp
F
wind
direction
speed
MPH
gust
MPH
rain 1hr
in
rain 24hr
in
rain mn
in
humidity
%
barometer
mb
20260508050018 56 281 3.0 7.0 0.00 0.00 0.00 58 1013.7
20260508044518 57 289 4.0 8.0 0.00 0.00 0.00 58 1013.5
20260508043017 57 285 4.0 8.0 0.00 0.00 0.00 57 1013.5
20260508041516 58 288 4.0 6.0 0.00 0.00 0.00 55 1013.4
20260508040034 59 274 3.0 4.0 0.00 0.00 0.00 51 1013.3
20260508034519 63 289 6.0 9.0 0.00 0.00 0.00 45 1013.2
20260508033017 63 281 4.0 7.0 0.00 0.00 0.00 45 1013.0
20260508031517 64 297 2.0 7.0 0.00 0.00 0.00 45 1013.0
20260508030014 66 294 6.0 12.0 0.00 0.00 0.00 44 1012.7
20260508024521 67 285 5.0 10.0 0.00 0.00 0.00 43 1012.5
20260508023012 68 297 4.0 8.0 0.00 0.00 0.00 41 1012.4
20260508021513 69 290 7.0 14.0 0.00 0.00 0.00 41 1012.4
20260508020013 70 295 8.0 14.0 0.00 0.00 0.00 39 1012.4
20260508014510 70 295 8.0 17.0 0.00 0.00 0.00 38 1012.5
20260508013011 71 300 8.0 16.0 0.00 0.00 0.00 36 1012.4
20260508011509 71 297 11.0 16.0 0.00 0.00 0.00 32 1012.5
20260508010010 73 289 9.0 15.0 0.00 0.00 0.00 29 1012.5
20260508004507 73 283 12.0 16.0 0.00 0.00 0.00 27 1012.6
20260508003006 74 275 10.0 17.0 0.00 0.00 0.00 27 1012.5
20260508001506 74 305 12.0 19.0 0.00 0.00 0.00 27 1012.5
20260508000006 74 290 11.0 17.0 0.00 0.00 0.00 24 1012.4
20260507234506 76 320 10.0 18.0 0.00 0.00 0.00 23 1012.3
20260507233004 76 292 7.0 12.0 0.00 0.00 0.00 22 1012.2
20260507231502 76 295 9.0 15.0 0.00 0.00 0.00 19 1012.3
20260507230100 77 321 8.0 16.0 0.00 0.00 0.00 19 1012.2
20260507230005 77 300 9.0 18.0 0.00 0.00 0.00 19 1012.3
20260507224600 76 304 10.0 18.0 0.00 0.00 0.00 20 1012.5
20260507223116 76 269 11.0 19.0 0.00 0.00 0.00 18 1012.6
20260507221558 77 268 9.0 19.0 0.00 0.00 0.00 19 1012.7
20260507220054 76 304 13.0 20.0 0.00 0.00 0.00 15 1012.8
20260507214553 76 281 10.0 19.0 0.00 0.00 0.00 16 1012.9
20260507213051 76 283 9.0 13.0 0.00 0.00 0.00 18 1013.1
20260507211557 75 299 8.0 14.0 0.00 0.00 0.00 17 1013.2
20260507210104 75 300 2.0 13.0 0.00 0.00 0.00 19 1013.3
20260507204545 74 281 5.0 11.0 0.00 0.00 0.00 19 1013.4
20260507203039 73 307 2.0 13.0 0.00 0.00 0.00 18 1013.7
20260507201536 74 326 4.0 13.0 0.00 0.00 0.00 20 1013.8
20260507200041 73 297 7.0 13.0 0.00 0.00 0.00 21 1014.0
20260507194546 73 226 4.0 10.0 0.00 0.00 0.00 19 1014.1
20260507193029 72 200 2.0 9.0 0.00 0.00 0.00 21 1014.2
20260507191526 71 252 1.0 9.0 0.00 0.00 0.00 25 1014.4
20260507190040 71 181 2.0 7.0 0.00 0.00 0.00 27 1014.5
20260507184531 70 271 6.0 10.0 0.00 0.00 0.00 31 1014.6
20260507183020 68 56 1.0 7.0 0.00 0.00 0.00 37 1014.8
20260507181518 69 286 3.0 6.0 0.00 0.00 0.00 37 1014.9
20260507180018 67 276 0.0 8.0 0.00 0.00 0.00 36 1015.0
20260507174513 66 254 4.0 10.0 0.00 0.00 0.00 37 1015.0
20260507173024 66 276 4.0 7.0 0.00 0.00 0.00 41 1015.3
20260507171506 65 284 3.0 9.0 0.00 0.00 0.00 44 1015.2
20260507170005 64 291 4.0 9.0 0.00 0.00 0.00 46 1015.3
20260507164502 63 326 3.0 12.0 0.00 0.00 0.00 49 1015.4
20260507163101 62 342 1.0 7.0 0.00 0.00 0.00 52 1015.4
20260507161600 62 326 4.0 12.0 0.00 0.00 0.00 52 1015.4
20260507160055 60 258 1.0 6.0 0.00 0.00 0.00 55 1015.6
20260507154556 59 334 2.0 5.0 0.00 0.00 0.00 59 1015.8
20260507153051 59 16 2.0 12.0 0.00 0.00 0.00 59 1015.8
20260507151549 58 300 7.0 13.0 0.00 0.00 0.00 59 1015.8
20260507150047 57 294 11.0 15.0 0.00 0.00 0.00 60 1016.0
20260507144544 57 281 10.0 15.0 0.00 0.00 0.00 62 1015.9
20260507143045 56 297 6.0 12.0 0.00 0.00 0.00 63 1015.7
20260507141543 55 295 8.0 13.0 0.00 0.00 0.00 65 1015.7
20260507140044 55 302 7.0 11.0 0.00 0.00 0.00 67 1015.6
20260507134540 54 292 3.0 6.0 0.00 0.00 0.00 68 1015.7
20260507133043 53 283 4.0 10.0 0.00 0.00 0.00 70 1015.5
20260507131539 53 292 5.0 11.0 0.00 0.00 0.00 71 1015.4
20260507130040 52 288 10.0 16.0 0.00 0.00 0.00 71 1015.3
20260507124539 52 290 10.0 15.0 0.00 0.00 0.00 72 1015.2
20260507123032 53 295 10.0 17.0 0.00 0.00 0.00 72 1015.1
20260507121531 53 262 11.0 19.0 0.00 0.00 0.00 71 1015.0
20260507120029 53 278 14.0 20.0 0.00 0.00 0.00 71 1015.0
20260507114546 54 267 14.0 22.0 0.00 0.00 0.00 70 1014.8
20260507113050 53 262 14.0 21.0 0.00 0.00 0.00 70 1014.7
20260507111535 54 264 14.0 21.0 0.00 0.00 0.00 69 1014.7
20260507110023 54 264 15.0 25.0 0.00 0.00 0.00 69 1014.6
20260507104520 54 257 18.0 26.0 0.00 0.00 0.00 69 1014.5
20260507103119 55 263 19.0 30.0 0.00 0.00 0.00 68 1014.5
20260507101519 55 281 17.0 26.0 0.00 0.00 0.00 69 1014.5
20260507100015 55 257 20.0 29.0 0.00 0.00 0.00 69 1014.5
20260507094516 55 251 19.0 29.0 0.00 0.00 0.00 68 1014.8
20260507093011 55 240 14.0 24.0 0.00 0.00 0.00 69 1014.9
20260507091509 55 260 16.0 28.0 0.00 0.00 0.00 68 1014.9
20260507090006 56 265 18.0 26.0 0.00 0.00 0.00 66 1014.7
20260507084506 56 223 13.0 25.0 0.00 0.00 0.00 66 1015.0
20260507083100 56 251 14.0 22.0 0.00 0.00 0.00 65 1015.1
20260507081601 57 228 13.0 23.0 0.00 0.00 0.00 65 1015.0
20260507080055 57 217 12.0 21.0 0.00 0.00 0.00 65 1014.9
20260507074559 57 278 12.0 19.0 0.00 0.00 0.00 65 1014.9
20260507073054 58 259 14.0 21.0 0.00 0.00 0.00 64 1015.0
20260507071549 58 259 12.0 22.0 0.00 0.00 0.00 64 1014.9
20260507070047 58 269 15.0 22.0 0.00 0.00 0.00 63 1014.9
20260507064548 58 249 15.0 25.0 0.00 0.00 0.00 64 1014.8
20260507063045 58 247 18.0 27.0 0.00 0.00 0.00 64 1014.7
20260507061544 58 285 16.0 31.0 0.00 0.00 0.00 65 1014.7
20260507060043 59 285 15.0 25.0 0.00 0.00 0.00 64 1014.9
20260507054542 59 255 18.0 26.0 0.00 0.00 0.00 64 1014.8
20260507053042 59 269 16.0 25.0 0.00 0.00 0.00 64 1015.0
20260507051542 59 248 16.0 26.0 0.00 0.00 0.00 63 1015.1